SWA3194 KMCO-KSAN

Flight info

Callsign SWA3194
Flight time 4h 50m
Altitude 36000
Route OSPRY1 REMIS Y280 REDFN KH84I SAT KH03Y ELP FAAST BAYBI GBN J2 HOGGZ LUCKI1
Aircraft B738/M-SDE2E3FGHIRWXY/LB1

Departure

Time 2026-05-06 22:15
Airport Orlando International Airport (KMCO)

Arrival

Time 2026-05-07 03:05
Airport San Diego International Airport (KSAN)
Time Latitude Longitude Altitude Speed Heading
2026-05-06 21:33 28.43510 -81.30038 94 ft 0 kts 257°
2026-05-06 21:59 28.43512 -81.30028 94 ft 4 kts 263°
2026-05-06 22:00 28.43516 -81.29998 94 ft 4 kts 263°
2026-05-06 22:00 28.43518 -81.29971 94 ft 1 kts 264°
2026-05-06 22:00 28.43518 -81.29970 94 ft 1 kts 264°
2026-05-06 22:03 28.43518 -81.29971 94 ft 0 kts 265°
2026-05-06 22:03 28.43521 -81.29978 94 ft 2 kts 297°
2026-05-06 22:03 28.43533 -81.29984 94 ft 2 kts 353°
2026-05-06 22:04 28.43554 -81.29975 94 ft 4 kts 26°
2026-05-06 22:04 28.43582 -81.29958 96 ft 5 kts 27°
2026-05-06 22:04 28.43619 -81.29938 94 ft 6 kts 24°
2026-05-06 22:04 28.43666 -81.29919 94 ft 8 kts 16°
2026-05-06 22:05 28.43729 -81.29909 93 ft 10 kts 357°
2026-05-06 22:05 28.43790 -81.29953 93 ft 12 kts 317°
2026-05-06 22:05 28.43867 -81.29961 96 ft 11 kts 341°
2026-05-06 22:05 28.43897 -81.30037 98 ft 12 kts 276°
2026-05-06 22:06 28.43903 -81.30153 100 ft 18 kts 272°
2026-05-06 22:06 28.43911 -81.30314 101 ft 24 kts 273°
2026-05-06 22:06 28.43919 -81.30519 105 ft 28 kts 273°
2026-05-06 22:06 28.43935 -81.30754 108 ft 30 kts 274°
2026-05-06 22:07 28.43942 -81.30988 106 ft 29 kts 270°
2026-05-06 22:07 28.43935 -81.31213 107 ft 28 kts 267°
2026-05-06 22:07 28.43925 -81.31425 103 ft 26 kts 268°
2026-05-06 22:07 28.43923 -81.31626 106 ft 25 kts 269°
2026-05-06 22:08 28.43922 -81.31813 99 ft 19 kts 273°
2026-05-06 22:08 28.44026 -81.31890 97 ft 19 kts 343°
2026-05-06 22:08 28.44111 -81.31901 97 ft 18 kts 358°
2026-05-06 22:08 28.44237 -81.31900 97 ft 18 kts 358°
2026-05-06 22:09 28.44359 -81.31903 97 ft 17 kts 358°
2026-05-06 22:09 28.44476 -81.31905 97 ft 17 kts 359°
2026-05-06 22:09 28.44590 -81.31906 97 ft 16 kts 359°
2026-05-06 22:09 28.44683 -81.31907 97 ft 7 kts 359°
2026-05-06 22:10 28.44695 -81.31907 97 ft 0 kts 359°
2026-05-06 22:12 28.44702 -81.31908 97 ft 3 kts 359°
2026-05-06 22:13 28.44742 -81.31908 97 ft 8 kts 359°
2026-05-06 22:13 28.44811 -81.31931 98 ft 13 kts 312°
2026-05-06 22:13 28.44824 -81.32048 97 ft 17 kts 272°
2026-05-06 22:13 28.44821 -81.32189 98 ft 15 kts 262°
2026-05-06 22:14 28.44742 -81.32231 98 ft 14 kts 178°
2026-05-06 22:14 28.44559 -81.32229 100 ft 54 kts 179°
2026-05-06 22:14 28.43967 -81.32222 100 ft 115 kts 179°
2026-05-06 22:14 28.42981 -81.32212 99 ft 167 kts 179°
2026-05-06 22:15 28.41745 -81.32200 551 ft 176 kts 179°
2026-05-06 22:15 28.40534 -81.32157 1322 ft 178 kts 179°
2026-05-06 22:15 28.39282 -81.32488 1539 ft 198 kts 210°
2026-05-06 22:15 28.38018 -81.33281 1738 ft 217 kts 207°
2026-05-06 22:16 28.36621 -81.34082 1930 ft 233 kts 206°
2026-05-06 22:16 28.35140 -81.34936 2218 ft 246 kts 207°
2026-05-06 22:16 28.33808 -81.36243 2451 ft 264 kts 240°
2026-05-06 22:16 28.33319 -81.38264 2977 ft 270 kts 264°
2026-05-06 22:17 28.33168 -81.40401 3518 ft 275 kts 265°
2026-05-06 22:17 28.33033 -81.42571 4129 ft 276 kts 265°
2026-05-06 22:17 28.32891 -81.44745 4784 ft 276 kts 265°
2026-05-06 22:17 28.32743 -81.46920 5410 ft 276 kts 265°
2026-05-06 22:18 28.32593 -81.49103 6138 ft 279 kts 265°
2026-05-06 22:18 28.32434 -81.51302 6956 ft 280 kts 265°
2026-05-06 22:18 28.32271 -81.53509 7716 ft 282 kts 265°
2026-05-06 22:18 28.32103 -81.55738 8436 ft 285 kts 265°
2026-05-06 22:19 28.31931 -81.57995 9132 ft 289 kts 265°
2026-05-06 22:19 28.31755 -81.60285 9805 ft 293 kts 265°
2026-05-06 22:19 28.31574 -81.62612 10385 ft 301 kts 265°
2026-05-06 22:19 28.31384 -81.65066 10550 ft 323 kts 265°
2026-05-06 22:20 28.31182 -81.67683 10716 ft 343 kts 266°
2026-05-06 22:20 28.30967 -81.70454 10862 ft 362 kts 266°
2026-05-06 22:20 28.30741 -81.73368 10991 ft 379 kts 266°
2026-05-06 22:20 28.30505 -81.76391 11302 ft 389 kts 266°
2026-05-06 22:21 28.30262 -81.79465 11797 ft 393 kts 266°
2026-05-06 22:21 28.30017 -81.82563 12316 ft 396 kts 266°
2026-05-06 22:21 28.29771 -81.85679 12851 ft 398 kts 266°
2026-05-06 22:21 28.29522 -81.88806 13413 ft 399 kts 266°
2026-05-06 22:22 28.29111 -81.91926 13956 ft 401 kts 261°
2026-05-06 22:22 28.28536 -81.95028 14496 ft 403 kts 259°
2026-05-06 22:22 28.27917 -81.98138 14997 ft 405 kts 259°
2026-05-06 22:22 28.27288 -82.01258 15460 ft 407 kts 259°
2026-05-06 22:23 28.26662 -82.04394 15948 ft 408 kts 259°
2026-05-06 22:23 28.26043 -82.07541 16425 ft 409 kts 260°
2026-05-06 22:23 28.25429 -82.10698 16867 ft 411 kts 260°
2026-05-06 22:23 28.24817 -82.13870 17307 ft 413 kts 260°
2026-05-06 22:24 28.24205 -82.17054 17741 ft 414 kts 260°
2026-05-06 22:24 28.23599 -82.20207 18161 ft 415 kts 261°
2026-05-06 22:24 28.22985 -82.23409 18571 ft 417 kts 261°
2026-05-06 22:24 28.22366 -82.26630 18969 ft 418 kts 261°
2026-05-06 22:25 28.21745 -82.29854 19356 ft 419 kts 261°
2026-05-06 22:25 28.21122 -82.33089 19692 ft 422 kts 261°
2026-05-06 22:25 28.20494 -82.36341 20077 ft 422 kts 261°
2026-05-06 22:25 28.19865 -82.39592 20450 ft 423 kts 261°
2026-05-06 22:26 28.19232 -82.42855 20783 ft 425 kts 261°
2026-05-06 22:26 28.18597 -82.46133 21135 ft 426 kts 261°
2026-05-06 22:26 28.17959 -82.49417 21467 ft 427 kts 261°
2026-05-06 22:26 28.17319 -82.52702 21796 ft 427 kts 261°
2026-05-06 22:27 28.16678 -82.55997 22106 ft 429 kts 261°
2026-05-06 22:27 28.16033 -82.59301 22423 ft 430 kts 261°
2026-05-06 22:27 28.15386 -82.62609 22720 ft 431 kts 261°
2026-05-06 22:27 28.14738 -82.65924 22992 ft 432 kts 261°
2026-05-06 22:28 28.14087 -82.69248 23265 ft 433 kts 261°
2026-05-06 22:28 28.13433 -82.72580 23522 ft 434 kts 261°
2026-05-06 22:28 28.12776 -82.75920 23788 ft 434 kts 260°
2026-05-06 22:28 28.12116 -82.79266 24040 ft 435 kts 260°
2026-05-06 22:29 28.11456 -82.82614 24276 ft 436 kts 261°
2026-05-06 22:29 28.10796 -82.85971 24474 ft 438 kts 260°
2026-05-06 22:29 28.10132 -82.89335 24725 ft 438 kts 261°
2026-05-06 22:29 28.09484 -82.92708 24971 ft 438 kts 261°
2026-05-06 22:30 28.08852 -82.96084 25171 ft 439 kts 261°
2026-05-06 22:30 28.08222 -82.99472 25386 ft 440 kts 261°
2026-05-06 22:30 28.07589 -83.02871 25588 ft 441 kts 261°
2026-05-06 22:30 28.06951 -83.06268 25790 ft 442 kts 261°
2026-05-06 22:31 28.06308 -83.09675 25991 ft 443 kts 261°
2026-05-06 22:31 28.05663 -83.13081 26176 ft 444 kts 261°
2026-05-06 22:31 28.05013 -83.16502 26346 ft 445 kts 261°
2026-05-06 22:31 28.04362 -83.19925 26545 ft 445 kts 261°
2026-05-06 22:32 28.03708 -83.23357 26747 ft 445 kts 261°
2026-05-06 22:32 28.03054 -83.26785 26928 ft 446 kts 261°
2026-05-06 22:32 28.02397 -83.30222 27114 ft 447 kts 261°
2026-05-06 22:32 28.01739 -83.33654 27385 ft 445 kts 261°
2026-05-06 22:33 28.01085 -83.37069 27697 ft 443 kts 261°
2026-05-06 22:33 28.00434 -83.40471 27964 ft 442 kts 261°
2026-05-06 22:33 27.99901 -83.43887 28186 ft 440 kts 266°
2026-05-06 22:33 27.99667 -83.47337 28412 ft 439 kts 269°
2026-05-06 22:34 27.99493 -83.50791 28619 ft 440 kts 269°
2026-05-06 22:34 27.99330 -83.54242 28863 ft 439 kts 269°
2026-05-06 22:34 27.99165 -83.57644 29161 ft 438 kts 269°
2026-05-06 22:34 27.98988 -83.61073 29499 ft 435 kts 269°
2026-05-06 22:35 27.98801 -83.64483 29778 ft 435 kts 268°
2026-05-06 22:35 27.98606 -83.67892 30058 ft 434 kts 268°
2026-05-06 22:35 27.98408 -83.71291 30352 ft 432 kts 268°
2026-05-06 22:35 27.98208 -83.74680 30663 ft 431 kts 268°
2026-05-06 22:36 27.98007 -83.78051 30956 ft 429 kts 268°
2026-05-06 22:36 27.97806 -83.81418 31207 ft 429 kts 268°
2026-05-06 22:36 27.97604 -83.84783 31446 ft 429 kts 268°
2026-05-06 22:36 27.97401 -83.88144 31705 ft 428 kts 268°
2026-05-06 22:37 27.97199 -83.91497 31995 ft 427 kts 268°
2026-05-06 22:37 27.96995 -83.94838 32284 ft 425 kts 268°
2026-05-06 22:37 27.96792 -83.98176 32522 ft 425 kts 268°
2026-05-06 22:37 27.96588 -84.01515 32740 ft 426 kts 269°
2026-05-06 22:38 27.96383 -84.04853 33025 ft 424 kts 269°
2026-05-06 22:38 27.96178 -84.08170 33330 ft 422 kts 269°
2026-05-06 22:38 27.95973 -84.11479 33563 ft 422 kts 269°
2026-05-06 22:38 27.95767 -84.14792 33764 ft 422 kts 269°
2026-05-06 22:39 27.95561 -84.18101 34016 ft 421 kts 269°
2026-05-06 22:39 27.95355 -84.21396 34260 ft 420 kts 269°
2026-05-06 22:39 27.95148 -84.24686 34477 ft 420 kts 269°
2026-05-06 22:39 27.94941 -84.27977 34686 ft 419 kts 269°
2026-05-06 22:40 27.94733 -84.31256 34958 ft 417 kts 269°
2026-05-06 22:40 27.94525 -84.34520 35223 ft 415 kts 268°
2026-05-06 22:40 27.94317 -84.37772 35429 ft 414 kts 268°
2026-05-06 22:40 27.94109 -84.41022 35596 ft 415 kts 268°
2026-05-06 22:41 27.93694 -84.47476 35974 ft 414 kts 268°
2026-05-06 22:41 27.93484 -84.50722 36052 ft 415 kts 268°
2026-05-06 22:42 27.93060 -84.57240 36061 ft 415 kts 268°
2026-05-06 22:42 27.92634 -84.63722 36053 ft 412 kts 268°
2026-05-06 22:43 27.92208 -84.70160 36052 ft 409 kts 268°
2026-05-06 22:43 27.91782 -84.76565 36052 ft 408 kts 268°
2026-05-06 22:44 27.91355 -84.82956 36057 ft 408 kts 268°
2026-05-06 22:44 27.90930 -84.89256 36031 ft 409 kts 268°
2026-05-06 22:45 27.90495 -84.95664 36056 ft 409 kts 268°
2026-05-06 22:45 27.90054 -85.02096 36057 ft 412 kts 268°
2026-05-06 22:46 27.89607 -85.08565 36060 ft 414 kts 268°
2026-05-06 22:46 27.89155 -85.15060 36047 ft 415 kts 267°
2026-05-06 22:47 27.88706 -85.21588 36044 ft 417 kts 269°
2026-05-06 22:47 27.89187 -85.28094 36044 ft 417 kts 282°
2026-05-06 22:48 27.90937 -85.34340 36051 ft 418 kts 288°
2026-05-06 22:48 27.92855 -85.40527 36035 ft 417 kts 288°
2026-05-06 22:49 27.94752 -85.46712 36049 ft 416 kts 288°
2026-05-06 22:49 27.96629 -85.52898 36049 ft 415 kts 288°
2026-05-06 22:50 27.98492 -85.59072 36050 ft 414 kts 288°
2026-05-06 22:50 28.00347 -85.65231 36054 ft 413 kts 288°
2026-05-06 22:51 28.02193 -85.71380 36045 ft 412 kts 288°
2026-05-06 22:51 28.04031 -85.77511 36049 ft 411 kts 288°
2026-05-06 22:52 28.05851 -85.83589 36046 ft 410 kts 287°
2026-05-06 22:52 28.07679 -85.89708 36047 ft 410 kts 288°
2026-05-06 22:53 28.09210 -85.94838 36045 ft 410 kts 287°
2026-05-06 22:53 28.11035 -86.00962 36034 ft 410 kts 287°
2026-05-06 22:54 28.12856 -86.07085 36045 ft 410 kts 287°
2026-05-06 22:54 28.14674 -86.13213 36053 ft 411 kts 287°
2026-05-06 22:55 28.16495 -86.19362 36037 ft 412 kts 287°
2026-05-06 22:55 28.18315 -86.25519 36036 ft 412 kts 287°
2026-05-06 22:56 28.20135 -86.31682 36050 ft 412 kts 287°
2026-05-06 22:56 28.21953 -86.37855 36027 ft 413 kts 287°
2026-05-06 22:57 28.23769 -86.44033 36023 ft 413 kts 287°
2026-05-06 22:57 28.25570 -86.50175 36019 ft 413 kts 287°
2026-05-06 22:58 28.27392 -86.56400 36016 ft 413 kts 287°
2026-05-06 22:58 28.29185 -86.62535 36020 ft 412 kts 287°
2026-05-06 22:59 28.30983 -86.68704 36017 ft 411 kts 287°
2026-05-06 22:59 28.32783 -86.74857 36020 ft 411 kts 287°
2026-05-06 23:00 28.34589 -86.81000 36011 ft 410 kts 287°
2026-05-06 23:00 28.36387 -86.87139 36009 ft 409 kts 287°
2026-05-06 23:01 28.38178 -86.93271 36010 ft 409 kts 287°
2026-05-06 23:01 28.39962 -86.99401 36009 ft 408 kts 287°
2026-05-06 23:02 28.41741 -87.05522 36010 ft 408 kts 287°
2026-05-06 23:02 28.43520 -87.11652 36010 ft 409 kts 287°
2026-05-06 23:03 28.45295 -87.17783 36007 ft 408 kts 287°
2026-05-06 23:03 28.47068 -87.23920 36010 ft 409 kts 286°
2026-05-06 23:04 28.48835 -87.30055 36010 ft 409 kts 286°
2026-05-06 23:04 28.50606 -87.36199 36009 ft 409 kts 286°
2026-05-06 23:05 28.52374 -87.42349 36009 ft 409 kts 286°
2026-05-06 23:05 28.54138 -87.48498 36016 ft 409 kts 286°
2026-05-06 23:06 28.55899 -87.54649 36021 ft 409 kts 286°
2026-05-06 23:06 28.57659 -87.60812 36019 ft 410 kts 286°
2026-05-06 23:07 28.59417 -87.66981 36018 ft 410 kts 286°
2026-05-06 23:07 28.61174 -87.73155 36018 ft 410 kts 286°
2026-05-06 23:08 28.62930 -87.79332 36019 ft 410 kts 286°
2026-05-06 23:08 28.64670 -87.85476 36019 ft 410 kts 286°
2026-05-06 23:09 28.66418 -87.91658 36018 ft 410 kts 286°
2026-05-06 23:09 28.68163 -87.97842 36021 ft 411 kts 286°
2026-05-06 23:10 28.69908 -88.04042 36020 ft 411 kts 285°
2026-05-06 23:10 28.71651 -88.10240 36017 ft 411 kts 285°
2026-05-06 23:11 28.73391 -88.16438 36020 ft 410 kts 286°
2026-05-06 23:11 28.75127 -88.22634 36017 ft 410 kts 285°
2026-05-06 23:12 28.76855 -88.28825 36019 ft 410 kts 285°
2026-05-06 23:12 28.78577 -88.35008 36020 ft 409 kts 285°
2026-05-06 23:13 28.80292 -88.41183 36017 ft 408 kts 285°
2026-05-06 23:13 28.82003 -88.47353 36018 ft 407 kts 285°
2026-05-06 23:14 28.83705 -88.53507 36017 ft 407 kts 285°
2026-05-06 23:14 28.85404 -88.59669 36008 ft 407 kts 285°
2026-05-06 23:15 28.87101 -88.65821 36008 ft 406 kts 285°
2026-05-06 23:15 28.88430 -88.72013 36004 ft 403 kts 275°
2026-05-06 23:16 28.88727 -88.78390 36007 ft 402 kts 272°
2026-05-06 23:16 28.89008 -88.84759 36006 ft 402 kts 272°
2026-05-06 23:17 28.89297 -88.91130 36000 ft 402 kts 272°
2026-05-06 23:17 28.89589 -88.97505 35998 ft 403 kts 272°
2026-05-06 23:18 28.89879 -89.03891 36003 ft 403 kts 272°
2026-05-06 23:18 28.90166 -89.10281 36002 ft 403 kts 272°
2026-05-06 23:19 28.90452 -89.16680 36001 ft 404 kts 272°
2026-05-06 23:19 28.90733 -89.23083 35999 ft 404 kts 272°
2026-05-06 23:20 28.91012 -89.29496 35988 ft 405 kts 272°
2026-05-06 23:20 28.91288 -89.35918 35976 ft 405 kts 272°
2026-05-06 23:21 28.91561 -89.42337 35971 ft 405 kts 272°
2026-05-06 23:21 28.91830 -89.48713 35972 ft 404 kts 272°
2026-05-06 23:22 28.92095 -89.55122 35974 ft 404 kts 272°
2026-05-06 23:22 28.92360 -89.61525 35971 ft 404 kts 272°
2026-05-06 23:23 28.92621 -89.67970 35973 ft 404 kts 272°
2026-05-06 23:23 28.92878 -89.74367 35971 ft 403 kts 272°
2026-05-06 23:24 28.93132 -89.80712 35970 ft 403 kts 272°
2026-05-06 23:24 28.93384 -89.87097 35965 ft 403 kts 272°
2026-05-06 23:25 28.93633 -89.93483 35962 ft 402 kts 272°
2026-05-06 23:25 28.93876 -89.99862 35964 ft 402 kts 272°
2026-05-06 23:26 28.94117 -90.06239 35964 ft 402 kts 271°
2026-05-06 23:26 28.94356 -90.12626 35962 ft 403 kts 271°
2026-05-06 23:27 28.94593 -90.19025 35964 ft 404 kts 271°
2026-05-06 23:27 28.94825 -90.25425 35963 ft 404 kts 271°
2026-05-06 23:28 28.95055 -90.31829 35960 ft 404 kts 271°
2026-05-06 23:28 28.95283 -90.38235 35954 ft 404 kts 271°
2026-05-06 23:29 28.95508 -90.44648 35957 ft 404 kts 271°
2026-05-06 23:29 28.95729 -90.51056 35952 ft 404 kts 271°
2026-05-06 23:30 28.95948 -90.57462 35954 ft 403 kts 271°
2026-05-06 23:30 28.96163 -90.63863 35953 ft 403 kts 271°
2026-05-06 23:31 28.96373 -90.70260 35952 ft 403 kts 271°
2026-05-06 23:31 28.96581 -90.76658 35943 ft 403 kts 271°
2026-05-06 23:32 28.96786 -90.83006 35945 ft 403 kts 271°
2026-05-06 23:32 28.96988 -90.89391 35945 ft 402 kts 271°
2026-05-06 23:33 28.97188 -90.95767 35945 ft 402 kts 271°
2026-05-06 23:33 28.97382 -91.02141 35945 ft 401 kts 271°
2026-05-06 23:34 28.97576 -91.08508 35946 ft 401 kts 271°
2026-05-06 23:34 28.97765 -91.14879 35943 ft 401 kts 271°
2026-05-06 23:35 28.97950 -91.21253 35944 ft 402 kts 271°
2026-05-06 23:35 28.98135 -91.27629 35947 ft 402 kts 271°
2026-05-06 23:36 28.98318 -91.34007 35947 ft 402 kts 270°
2026-05-06 23:36 28.98495 -91.40392 35945 ft 402 kts 270°
2026-05-06 23:37 28.98669 -91.46779 35939 ft 403 kts 270°
2026-05-06 23:37 28.98841 -91.53174 35935 ft 403 kts 270°
2026-05-06 23:38 28.99009 -91.59569 35936 ft 403 kts 270°
2026-05-06 23:38 28.99175 -91.65966 35935 ft 403 kts 270°
2026-05-06 23:39 28.99338 -91.72319 35934 ft 403 kts 270°
2026-05-06 23:39 28.99497 -91.78712 35935 ft 403 kts 270°
2026-05-06 23:40 28.99653 -91.85103 35936 ft 402 kts 270°
2026-05-06 23:40 28.99804 -91.91489 35936 ft 402 kts 270°
2026-05-06 23:41 28.99932 -91.96833 35933 ft 402 kts 270°
2026-05-06 23:41 29.00309 -92.03205 35934 ft 403 kts 275°
2026-05-06 23:42 29.01116 -92.09503 35928 ft 403 kts 276°
2026-05-06 23:42 29.01947 -92.15838 35921 ft 403 kts 276°
2026-05-06 23:43 29.02752 -92.22184 35915 ft 404 kts 276°
2026-05-06 23:43 29.03536 -92.28530 35919 ft 403 kts 275°
2026-05-06 23:44 29.04310 -92.34870 35915 ft 403 kts 275°
2026-05-06 23:44 29.05079 -92.41209 35905 ft 403 kts 275°
2026-05-06 23:45 29.05846 -92.47545 35909 ft 402 kts 275°
2026-05-06 23:45 29.06609 -92.53880 35906 ft 402 kts 275°
2026-05-06 23:46 29.07369 -92.60211 35908 ft 402 kts 275°
2026-05-06 23:46 29.08126 -92.66538 35907 ft 402 kts 275°
2026-05-06 23:47 29.08880 -92.72872 35907 ft 402 kts 275°
2026-05-06 23:47 29.09631 -92.79205 35902 ft 402 kts 275°
2026-05-06 23:48 29.10380 -92.85539 35897 ft 402 kts 275°
2026-05-06 23:48 29.11126 -92.91873 35900 ft 402 kts 275°
2026-05-06 23:49 29.11865 -92.98205 35896 ft 402 kts 275°
2026-05-06 23:49 29.12600 -93.04493 35898 ft 401 kts 275°
2026-05-06 23:50 29.13336 -93.10818 35897 ft 401 kts 275°
2026-05-06 23:50 29.14432 -93.20308 35899 ft 401 kts 275°
2026-05-06 23:51 29.15159 -93.26634 35896 ft 401 kts 275°
2026-05-06 23:51 29.15882 -93.32965 35900 ft 401 kts 275°
2026-05-06 23:52 29.16605 -93.39300 35897 ft 401 kts 275°
2026-05-06 23:52 29.17322 -93.45629 35907 ft 401 kts 275°
2026-05-06 23:53 29.18037 -93.51956 35906 ft 401 kts 275°
2026-05-06 23:53 29.18749 -93.58281 35895 ft 401 kts 275°
2026-05-06 23:54 29.19458 -93.64598 35884 ft 400 kts 274°
2026-05-06 23:54 29.20163 -93.70916 35889 ft 400 kts 274°
2026-05-06 23:55 29.20864 -93.77222 35887 ft 399 kts 274°
2026-05-06 23:55 29.21561 -93.83530 35891 ft 399 kts 274°
2026-05-06 23:56 29.22255 -93.89831 35888 ft 399 kts 274°
2026-05-06 23:56 29.22946 -93.96141 35890 ft 399 kts 274°
2026-05-06 23:57 29.23634 -94.02451 35892 ft 399 kts 274°
2026-05-06 23:57 29.24315 -94.08719 35884 ft 400 kts 274°
2026-05-06 23:58 29.24999 -94.15033 35883 ft 399 kts 274°
2026-05-06 23:58 29.25679 -94.21340 35865 ft 399 kts 274°
2026-05-06 23:59 29.26354 -94.27643 35865 ft 399 kts 274°
2026-05-06 23:59 29.27027 -94.33942 35880 ft 398 kts 274°
2026-05-07 00:00 29.27697 -94.40242 35881 ft 398 kts 274°
2026-05-07 00:00 29.28361 -94.46535 35882 ft 398 kts 274°
2026-05-07 00:01 29.29023 -94.52834 35881 ft 398 kts 274°
2026-05-07 00:01 29.29684 -94.59129 35883 ft 398 kts 274°
2026-05-07 00:02 29.30341 -94.65441 35883 ft 399 kts 274°
2026-05-07 00:02 29.30997 -94.71749 35882 ft 399 kts 274°
2026-05-07 00:03 29.31650 -94.78065 35882 ft 399 kts 273°
2026-05-07 00:03 29.32300 -94.84380 35883 ft 399 kts 273°
2026-05-07 00:04 29.32946 -94.90694 35880 ft 399 kts 273°
2026-05-07 00:04 29.33589 -94.97015 35881 ft 399 kts 273°
2026-05-07 00:05 29.34230 -95.03336 35883 ft 399 kts 273°
2026-05-07 00:05 29.34869 -95.09660 35883 ft 399 kts 273°
2026-05-07 00:06 29.35498 -95.15939 35869 ft 399 kts 273°
2026-05-07 00:06 29.36128 -95.22260 35884 ft 399 kts 273°
2026-05-07 00:07 29.36759 -95.28579 35881 ft 399 kts 273°
2026-05-07 00:07 29.37385 -95.34888 35888 ft 398 kts 272°
2026-05-07 00:08 29.38006 -95.41191 35890 ft 398 kts 272°
2026-05-07 00:08 29.38625 -95.47498 35893 ft 397 kts 272°
2026-05-07 00:09 29.39238 -95.53786 35885 ft 397 kts 272°
2026-05-07 00:09 29.39846 -95.60077 35880 ft 396 kts 272°
2026-05-07 00:10 29.40452 -95.66359 35873 ft 396 kts 272°
2026-05-07 00:10 29.41053 -95.72621 35863 ft 395 kts 272°
2026-05-07 00:11 29.41653 -95.78876 35883 ft 394 kts 272°
2026-05-07 00:11 29.42249 -95.85125 35882 ft 394 kts 272°
2026-05-07 00:12 29.42839 -95.91364 35874 ft 394 kts 272°
2026-05-07 00:12 29.43421 -95.97564 35873 ft 393 kts 272°
2026-05-07 00:13 29.44007 -96.03806 35888 ft 393 kts 271°
2026-05-07 00:13 29.44589 -96.10042 35887 ft 393 kts 271°
2026-05-07 00:14 29.45167 -96.16276 35890 ft 393 kts 271°
2026-05-07 00:14 29.45741 -96.22507 35889 ft 392 kts 271°
2026-05-07 00:15 29.46313 -96.28732 35899 ft 392 kts 271°
2026-05-07 00:15 29.46881 -96.34960 35899 ft 392 kts 271°
2026-05-07 00:16 29.47449 -96.41190 35900 ft 393 kts 271°
2026-05-07 00:16 29.48013 -96.47430 35900 ft 393 kts 271°
2026-05-07 00:17 29.48574 -96.53678 35897 ft 394 kts 271°
2026-05-07 00:17 29.49134 -96.59928 35908 ft 394 kts 271°
2026-05-07 00:18 29.49688 -96.66184 35909 ft 395 kts 271°
2026-05-07 00:18 29.50244 -96.72466 35906 ft 395 kts 271°
2026-05-07 00:19 29.50797 -96.78748 35909 ft 396 kts 271°
2026-05-07 00:19 29.51348 -96.85036 35909 ft 396 kts 271°
2026-05-07 00:20 29.51895 -96.91330 35906 ft 396 kts 271°
2026-05-07 00:20 29.52440 -96.97624 35910 ft 396 kts 271°
2026-05-07 00:21 29.52982 -97.03914 35910 ft 396 kts 271°
2026-05-07 00:21 29.53518 -97.10184 35914 ft 395 kts 271°
2026-05-07 00:22 29.54052 -97.16458 35918 ft 395 kts 271°
2026-05-07 00:22 29.54582 -97.22723 35923 ft 394 kts 271°
2026-05-07 00:23 29.55100 -97.28961 35917 ft 395 kts 271°
2026-05-07 00:23 29.55626 -97.35236 35920 ft 394 kts 271°
2026-05-07 00:24 29.56152 -97.41500 35923 ft 394 kts 270°
2026-05-07 00:24 29.56671 -97.47760 35926 ft 393 kts 270°
2026-05-07 00:25 29.57186 -97.54013 35930 ft 393 kts 270°
2026-05-07 00:25 29.57614 -97.59249 35923 ft 393 kts 270°
2026-05-07 00:26 29.58202 -97.66491 35929 ft 391 kts 270°
2026-05-07 00:26 29.58705 -97.72716 35918 ft 391 kts 270°
2026-05-07 00:27 29.59124 -97.77928 35910 ft 391 kts 270°
2026-05-07 00:27 29.59622 -97.84154 35900 ft 391 kts 270°
2026-05-07 00:28 29.60113 -97.90329 35890 ft 390 kts 270°
2026-05-07 00:28 29.60602 -97.96539 35896 ft 390 kts 270°
2026-05-07 00:29 29.61089 -98.02743 35899 ft 390 kts 270°
2026-05-07 00:30 29.62054 -98.15140 35918 ft 389 kts 270°
2026-05-07 00:30 29.62528 -98.21331 35913 ft 389 kts 270°
2026-05-07 00:31 29.63006 -98.27526 35919 ft 390 kts 270°
2026-05-07 00:31 29.63473 -98.33731 35927 ft 390 kts 270°
2026-05-07 00:32 29.63942 -98.39949 35928 ft 390 kts 270°
2026-05-07 00:32 29.64496 -98.46170 35924 ft 394 kts 274°
2026-05-07 00:33 29.65959 -98.52298 35937 ft 399 kts 280°
2026-05-07 00:33 29.67561 -98.58411 35937 ft 399 kts 280°
2026-05-07 00:34 29.69140 -98.64516 35958 ft 398 kts 279°
2026-05-07 00:34 29.70706 -98.70632 35969 ft 398 kts 279°
2026-05-07 00:35 29.72265 -98.76741 35970 ft 398 kts 279°
2026-05-07 00:35 29.73822 -98.82858 35979 ft 398 kts 279°
2026-05-07 00:36 29.75364 -98.88939 35975 ft 399 kts 279°
2026-05-07 00:36 29.76915 -98.95067 35970 ft 399 kts 279°
2026-05-07 00:37 29.78465 -99.01190 35984 ft 398 kts 279°
2026-05-07 00:37 29.80008 -99.07306 35978 ft 398 kts 279°
2026-05-07 00:38 29.81543 -99.13406 35992 ft 397 kts 279°
2026-05-07 00:38 29.83078 -99.19516 35996 ft 397 kts 279°
2026-05-07 00:39 29.84608 -99.25617 35985 ft 396 kts 279°
2026-05-07 00:39 29.86133 -99.31717 35982 ft 396 kts 279°
2026-05-07 00:40 29.87655 -99.37810 35985 ft 395 kts 279°
2026-05-07 00:40 29.89171 -99.43899 35975 ft 395 kts 279°
2026-05-07 00:41 29.90681 -99.49978 35973 ft 394 kts 278°
2026-05-07 00:41 29.92185 -99.56039 35971 ft 393 kts 278°
2026-05-07 00:42 29.93681 -99.62087 35972 ft 392 kts 278°
2026-05-07 00:42 29.95175 -99.68130 35981 ft 392 kts 278°
2026-05-07 00:43 29.96662 -99.74170 35971 ft 391 kts 278°
2026-05-07 00:43 29.98143 -99.80200 35970 ft 391 kts 278°
2026-05-07 00:44 29.99623 -99.86234 35977 ft 391 kts 278°
2026-05-07 00:44 30.01100 -99.92262 35982 ft 390 kts 278°
2026-05-07 00:45 30.02562 -99.98255 35971 ft 391 kts 278°
2026-05-07 00:45 30.04034 -100.04287 35977 ft 390 kts 278°
2026-05-07 00:46 30.05503 -100.10325 35969 ft 391 kts 278°
2026-05-07 00:46 30.06969 -100.16368 35969 ft 391 kts 278°
2026-05-07 00:47 30.08433 -100.22413 35971 ft 391 kts 278°
2026-05-07 00:47 30.09893 -100.28456 35969 ft 391 kts 278°
2026-05-07 00:48 30.11350 -100.34494 35975 ft 390 kts 278°
2026-05-07 00:48 30.12804 -100.40538 35971 ft 390 kts 278°
2026-05-07 00:49 30.14254 -100.46576 35984 ft 390 kts 277°
2026-05-07 00:49 30.15701 -100.52619 35979 ft 390 kts 277°
2026-05-07 00:50 30.17147 -100.58668 35983 ft 390 kts 277°
2026-05-07 00:50 30.18587 -100.64711 35977 ft 390 kts 277°
2026-05-07 00:51 30.20025 -100.70756 35982 ft 390 kts 277°
2026-05-07 00:51 30.21460 -100.76794 35990 ft 389 kts 277°
2026-05-07 00:52 30.22890 -100.82830 35992 ft 389 kts 277°
2026-05-07 00:52 30.24318 -100.88868 35994 ft 389 kts 277°
2026-05-07 00:53 30.25740 -100.94902 35998 ft 389 kts 277°
2026-05-07 00:53 30.27160 -101.00937 36008 ft 389 kts 277°
2026-05-07 00:54 30.28574 -101.06966 35997 ft 388 kts 277°
2026-05-07 00:54 30.29987 -101.12998 35999 ft 388 kts 277°
2026-05-07 00:55 30.31400 -101.19032 36004 ft 389 kts 277°
2026-05-07 00:55 30.32806 -101.25071 36001 ft 389 kts 277°
2026-05-07 00:56 30.34213 -101.31123 35987 ft 389 kts 277°
2026-05-07 00:56 30.35616 -101.37169 35998 ft 389 kts 276°
2026-05-07 00:57 30.37018 -101.43222 35996 ft 389 kts 276°
2026-05-07 00:57 30.38419 -101.49282 35989 ft 389 kts 276°
2026-05-07 00:58 30.39805 -101.55299 35985 ft 390 kts 276°
2026-05-07 00:58 30.41201 -101.61366 35976 ft 390 kts 276°
2026-05-07 00:59 30.43288 -101.70469 35977 ft 390 kts 276°
2026-05-07 01:00 30.44676 -101.76544 35960 ft 390 kts 276°
2026-05-07 01:00 30.46060 -101.82608 35974 ft 389 kts 276°
2026-05-07 01:01 30.47439 -101.88678 35968 ft 389 kts 276°
2026-05-07 01:01 30.48815 -101.94743 35966 ft 390 kts 276°
2026-05-07 01:02 30.50228 -102.00817 35961 ft 394 kts 279°
2026-05-07 01:02 30.52155 -102.06805 35960 ft 397 kts 282°
2026-05-07 01:03 30.54161 -102.12776 35967 ft 397 kts 282°
2026-05-07 01:03 30.56143 -102.18752 35959 ft 397 kts 281°
2026-05-07 01:04 30.58105 -102.24731 35965 ft 396 kts 281°
2026-05-07 01:04 30.60054 -102.30712 35974 ft 396 kts 281°
2026-05-07 01:05 30.61998 -102.36692 35970 ft 396 kts 281°
2026-05-07 01:05 30.63935 -102.42666 35976 ft 395 kts 281°
2026-05-07 01:06 30.65866 -102.48630 35980 ft 394 kts 281°
2026-05-07 01:06 30.67779 -102.54552 35991 ft 394 kts 281°
2026-05-07 01:07 30.69700 -102.60514 35976 ft 394 kts 281°
2026-05-07 01:07 30.71619 -102.66474 35968 ft 393 kts 281°
2026-05-07 01:08 30.73534 -102.72426 35971 ft 393 kts 280°
2026-05-07 01:08 30.75443 -102.78369 35985 ft 392 kts 280°
2026-05-07 01:09 30.77340 -102.84294 35976 ft 391 kts 280°
2026-05-07 01:09 30.79235 -102.90218 35972 ft 391 kts 280°
2026-05-07 01:10 30.81126 -102.96148 35974 ft 391 kts 280°
2026-05-07 01:10 30.83016 -103.02082 35970 ft 391 kts 280°
2026-05-07 01:11 30.84903 -103.08032 35974 ft 392 kts 280°
2026-05-07 01:11 30.86473 -103.12989 35974 ft 393 kts 280°
2026-05-07 01:12 30.88366 -103.18957 35983 ft 393 kts 280°
2026-05-07 01:12 30.90259 -103.24931 35982 ft 394 kts 280°
2026-05-07 01:13 30.92147 -103.30907 35979 ft 394 kts 279°
2026-05-07 01:13 30.94032 -103.36888 35986 ft 393 kts 279°
2026-05-07 01:14 30.95914 -103.42869 35978 ft 393 kts 279°
2026-05-07 01:14 30.97789 -103.48840 35986 ft 392 kts 279°
2026-05-07 01:15 30.99659 -103.54809 35986 ft 392 kts 279°
2026-05-07 01:15 31.01523 -103.60772 35977 ft 391 kts 279°
2026-05-07 01:16 31.03384 -103.66736 35982 ft 391 kts 279°
2026-05-07 01:16 31.05240 -103.72695 35989 ft 390 kts 279°
2026-05-07 01:17 31.07092 -103.78646 36001 ft 390 kts 279°
2026-05-07 01:17 31.08938 -103.84586 36001 ft 389 kts 279°
2026-05-07 01:18 31.10776 -103.90520 35999 ft 389 kts 279°
2026-05-07 01:18 31.12611 -103.96455 36009 ft 388 kts 279°
2026-05-07 01:19 31.14440 -104.02380 36008 ft 388 kts 279°
2026-05-07 01:19 31.16266 -104.08299 36001 ft 387 kts 279°
2026-05-07 01:20 31.18085 -104.14217 35993 ft 387 kts 279°
2026-05-07 01:20 31.19900 -104.20133 35993 ft 387 kts 278°
2026-05-07 01:21 31.21713 -104.26057 35993 ft 387 kts 278°
2026-05-07 01:21 31.23514 -104.31943 35995 ft 388 kts 278°
2026-05-07 01:22 31.25323 -104.37867 36000 ft 387 kts 278°
2026-05-07 01:22 31.27129 -104.43794 36000 ft 387 kts 278°
2026-05-07 01:23 31.28934 -104.49729 36002 ft 387 kts 278°
2026-05-07 01:23 31.30735 -104.55662 36011 ft 386 kts 278°
2026-05-07 01:24 31.32530 -104.61588 36020 ft 387 kts 278°
2026-05-07 01:24 31.34323 -104.67519 36027 ft 387 kts 278°
2026-05-07 01:25 31.36116 -104.73461 36028 ft 387 kts 278°
2026-05-07 01:25 31.37908 -104.79406 36026 ft 387 kts 278°
2026-05-07 01:26 31.39697 -104.85354 36022 ft 388 kts 278°
2026-05-07 01:26 31.41481 -104.91303 36021 ft 387 kts 278°
2026-05-07 01:27 31.43261 -104.97252 36014 ft 388 kts 278°
2026-05-07 01:27 31.45042 -105.03209 36019 ft 387 kts 278°
2026-05-07 01:28 31.46809 -105.09128 36019 ft 387 kts 278°
2026-05-07 01:28 31.48585 -105.15090 36020 ft 388 kts 278°
2026-05-07 01:29 31.50361 -105.21062 36012 ft 388 kts 278°
2026-05-07 01:29 31.52131 -105.27030 36006 ft 387 kts 278°
2026-05-07 01:30 31.53895 -105.32991 36021 ft 387 kts 278°
2026-05-07 01:30 31.55660 -105.38967 36006 ft 387 kts 278°
2026-05-07 01:31 31.57417 -105.44925 36009 ft 386 kts 278°
2026-05-07 01:31 31.59169 -105.50873 36009 ft 386 kts 277°
2026-05-07 01:32 31.60914 -105.56819 36007 ft 386 kts 277°
2026-05-07 01:32 31.62657 -105.62763 36010 ft 385 kts 277°
2026-05-07 01:33 31.64397 -105.68713 36008 ft 385 kts 277°
2026-05-07 01:33 31.66133 -105.74665 36014 ft 386 kts 277°
2026-05-07 01:34 31.67872 -105.80629 36013 ft 387 kts 277°
2026-05-07 01:34 31.69609 -105.86604 36010 ft 387 kts 277°
2026-05-07 01:35 31.71347 -105.92588 36001 ft 387 kts 277°
2026-05-07 01:35 31.73080 -105.98571 36004 ft 387 kts 277°
2026-05-07 01:36 31.74809 -106.04554 36007 ft 388 kts 277°
2026-05-07 01:36 31.76528 -106.10521 36008 ft 388 kts 277°
2026-05-07 01:37 31.78256 -106.16525 36009 ft 388 kts 277°
2026-05-07 01:37 31.79979 -106.22526 36015 ft 387 kts 277°
2026-05-07 01:38 31.81700 -106.28526 36019 ft 386 kts 277°
2026-05-07 01:38 31.83264 -106.34541 36018 ft 384 kts 275°
2026-05-07 01:39 31.84750 -106.40556 36026 ft 383 kts 275°
2026-05-07 01:39 31.86238 -106.46573 36027 ft 383 kts 275°
2026-05-07 01:40 31.87734 -106.52598 36026 ft 385 kts 275°
2026-05-07 01:40 31.89236 -106.58635 36036 ft 385 kts 276°
2026-05-07 01:41 31.90746 -106.64691 36046 ft 385 kts 276°
2026-05-07 01:41 31.92245 -106.70730 36051 ft 384 kts 276°
2026-05-07 01:42 31.93742 -106.76772 36047 ft 384 kts 276°
2026-05-07 01:42 31.95234 -106.82818 36059 ft 385 kts 276°
2026-05-07 01:43 31.96723 -106.88864 36053 ft 385 kts 276°
2026-05-07 01:43 31.98204 -106.94888 36050 ft 386 kts 276°
2026-05-07 01:44 31.99693 -107.00963 36050 ft 386 kts 276°
2026-05-07 01:44 32.01181 -107.07040 36069 ft 386 kts 276°
2026-05-07 01:45 32.02666 -107.13116 36059 ft 386 kts 276°
2026-05-07 01:45 32.04148 -107.19197 36062 ft 386 kts 276°
2026-05-07 01:46 32.05629 -107.25286 36064 ft 387 kts 276°
2026-05-07 01:46 32.07111 -107.31390 36061 ft 387 kts 276°
2026-05-07 01:47 32.08589 -107.37495 36065 ft 387 kts 276°
2026-05-07 01:47 32.10063 -107.43604 36065 ft 387 kts 276°
2026-05-07 01:48 32.11535 -107.49715 36063 ft 387 kts 276°
2026-05-07 01:48 32.13002 -107.55822 36060 ft 387 kts 276°
2026-05-07 01:49 32.14469 -107.61934 36066 ft 387 kts 276°
2026-05-07 01:49 32.15932 -107.68048 36074 ft 387 kts 276°
2026-05-07 01:50 32.17392 -107.74170 36062 ft 388 kts 276°
2026-05-07 01:50 32.18852 -107.80303 36060 ft 388 kts 276°
2026-05-07 01:51 32.20310 -107.86442 36066 ft 388 kts 276°
2026-05-07 01:51 32.21765 -107.92587 36072 ft 389 kts 276°
2026-05-07 01:52 32.23220 -107.98745 36072 ft 389 kts 276°
2026-05-07 01:52 32.24667 -108.04885 36077 ft 389 kts 276°
2026-05-07 01:53 32.26112 -108.11037 36087 ft 389 kts 276°
2026-05-07 01:53 32.27555 -108.17190 36092 ft 388 kts 275°
2026-05-07 01:54 32.28734 -108.23371 36093 ft 385 kts 273°
2026-05-07 01:54 32.29826 -108.29563 36091 ft 385 kts 273°
2026-05-07 01:55 32.30916 -108.35749 36096 ft 385 kts 273°
2026-05-07 01:55 32.32015 -108.41952 36094 ft 386 kts 273°
2026-05-07 01:56 32.33119 -108.48168 36098 ft 386 kts 273°
2026-05-07 01:56 32.34221 -108.54392 36091 ft 387 kts 273°
2026-05-07 01:57 32.35135 -108.59572 36088 ft 388 kts 273°
2026-05-07 01:57 32.36422 -108.66872 36081 ft 388 kts 273°
2026-05-07 01:58 32.37513 -108.73073 36077 ft 387 kts 273°
2026-05-07 01:58 32.38429 -108.78302 36084 ft 387 kts 273°
2026-05-07 01:59 32.39518 -108.84545 36083 ft 388 kts 273°
2026-05-07 01:59 32.40598 -108.90750 36084 ft 387 kts 273°
2026-05-07 02:00 32.41689 -108.97034 36082 ft 387 kts 273°
2026-05-07 02:00 32.42770 -109.03279 36078 ft 387 kts 273°
2026-05-07 02:01 32.43842 -109.09491 36072 ft 388 kts 273°
2026-05-07 02:01 32.44919 -109.15756 36081 ft 388 kts 273°
2026-05-07 02:02 32.45995 -109.22033 36069 ft 390 kts 273°
2026-05-07 02:02 32.47073 -109.28342 36062 ft 391 kts 273°
2026-05-07 02:03 32.48150 -109.34666 36051 ft 392 kts 273°
2026-05-07 02:03 32.49228 -109.41008 36057 ft 393 kts 273°
2026-05-07 02:04 32.50303 -109.47351 36046 ft 392 kts 273°
2026-05-07 02:04 32.51370 -109.53681 36042 ft 391 kts 273°
2026-05-07 02:05 32.52431 -109.59994 36048 ft 390 kts 273°
2026-05-07 02:05 32.53490 -109.66303 36045 ft 390 kts 273°
2026-05-07 02:06 32.54544 -109.72611 36048 ft 390 kts 273°
2026-05-07 02:06 32.55595 -109.78926 36055 ft 391 kts 273°
2026-05-07 02:07 32.56644 -109.85250 36040 ft 391 kts 273°
2026-05-07 02:07 32.58219 -109.94771 36045 ft 393 kts 273°
2026-05-07 02:08 32.59265 -110.01115 36049 ft 392 kts 273°
2026-05-07 02:08 32.60306 -110.07464 36055 ft 393 kts 273°
2026-05-07 02:09 32.61345 -110.13826 36067 ft 394 kts 273°
2026-05-07 02:09 32.62381 -110.20172 36067 ft 395 kts 273°
2026-05-07 02:10 32.63422 -110.26580 36077 ft 396 kts 273°
2026-05-07 02:10 32.64459 -110.32990 36078 ft 395 kts 274°
2026-05-07 02:11 32.65496 -110.39411 36081 ft 397 kts 274°
2026-05-07 02:11 32.66534 -110.45862 36095 ft 399 kts 274°
2026-05-07 02:12 32.67573 -110.52354 36104 ft 402 kts 274°
2026-05-07 02:12 32.68615 -110.58885 36103 ft 404 kts 274°
2026-05-07 02:13 32.69659 -110.65439 36102 ft 404 kts 274°
2026-05-07 02:13 32.70698 -110.71989 36102 ft 404 kts 274°
2026-05-07 02:14 32.71737 -110.78553 36110 ft 405 kts 274°
2026-05-07 02:14 32.72773 -110.85137 36091 ft 406 kts 274°
2026-05-07 02:15 32.73807 -110.91740 36080 ft 407 kts 274°
2026-05-07 02:15 32.74840 -110.98353 36070 ft 408 kts 274°
2026-05-07 02:16 32.75874 -111.04992 36046 ft 409 kts 274°
2026-05-07 02:16 32.76886 -111.11612 36034 ft 410 kts 273°
2026-05-07 02:17 32.77750 -111.18298 36029 ft 409 kts 272°
2026-05-07 02:17 32.78568 -111.25001 36016 ft 410 kts 272°
2026-05-07 02:18 32.79397 -111.31725 36001 ft 411 kts 272°
2026-05-07 02:18 32.80233 -111.38460 35997 ft 412 kts 272°
2026-05-07 02:19 32.81070 -111.45199 35996 ft 413 kts 272°
2026-05-07 02:19 32.81908 -111.51946 35997 ft 413 kts 273°
2026-05-07 02:20 32.82738 -111.58697 36000 ft 413 kts 272°
2026-05-07 02:20 32.83566 -111.65450 35995 ft 413 kts 272°
2026-05-07 02:21 32.84391 -111.72206 36001 ft 413 kts 272°
2026-05-07 02:21 32.85213 -111.78959 36001 ft 414 kts 273°
2026-05-07 02:22 32.86035 -111.85741 36009 ft 414 kts 272°
2026-05-07 02:22 32.86851 -111.92526 36007 ft 415 kts 272°
2026-05-07 02:23 32.87665 -111.99328 36011 ft 415 kts 272°
2026-05-07 02:23 32.88477 -112.06141 35991 ft 417 kts 274°
2026-05-07 02:24 32.89293 -112.13041 36013 ft 426 kts 274°
2026-05-07 02:24 32.90123 -112.20082 36002 ft 431 kts 274°
2026-05-07 02:25 32.90957 -112.27168 36001 ft 433 kts 274°
2026-05-07 02:25 32.91790 -112.34276 35978 ft 434 kts 274°
2026-05-07 02:26 32.92618 -112.41393 35980 ft 434 kts 274°
2026-05-07 02:26 32.93441 -112.48518 35977 ft 434 kts 274°
2026-05-07 02:27 32.94260 -112.55639 35967 ft 434 kts 274°
2026-05-07 02:27 32.95077 -112.62763 35973 ft 434 kts 275°
2026-05-07 02:28 32.95346 -112.69883 35969 ft 428 kts 261°
2026-05-07 02:28 32.94415 -112.76836 35970 ft 428 kts 258°
2026-05-07 02:29 32.93436 -112.83829 35971 ft 429 kts 258°
2026-05-07 02:29 32.92474 -112.90837 35972 ft 430 kts 259°
2026-05-07 02:30 32.91521 -112.97871 35974 ft 432 kts 259°
2026-05-07 02:30 32.90560 -113.04944 35978 ft 434 kts 259°
2026-05-07 02:31 32.89591 -113.12059 35971 ft 437 kts 259°
2026-05-07 02:31 32.88614 -113.19211 35974 ft 439 kts 259°
2026-05-07 02:32 32.87626 -113.26395 35973 ft 441 kts 259°
2026-05-07 02:32 32.86629 -113.33619 35971 ft 443 kts 259°
2026-05-07 02:33 32.85625 -113.40849 35973 ft 443 kts 259°
2026-05-07 02:33 32.84617 -113.48090 35973 ft 444 kts 259°
2026-05-07 02:34 32.83600 -113.55350 35973 ft 445 kts 259°
2026-05-07 02:34 32.82584 -113.62567 35970 ft 445 kts 259°
2026-05-07 02:35 32.81559 -113.69833 35971 ft 446 kts 259°
2026-05-07 02:35 32.80513 -113.77128 35962 ft 446 kts 258°
2026-05-07 02:36 32.79469 -113.84363 35962 ft 446 kts 258°
2026-05-07 02:36 32.78416 -113.91618 35963 ft 444 kts 258°
2026-05-07 02:37 32.77491 -113.98872 35958 ft 445 kts 265°
2026-05-07 02:37 32.77485 -114.06222 35952 ft 447 kts 269°
2026-05-07 02:38 32.77711 -114.13654 35977 ft 456 kts 272°
2026-05-07 02:38 32.78063 -114.21229 35965 ft 461 kts 272°
2026-05-07 02:39 32.78377 -114.28847 35963 ft 462 kts 272°
2026-05-07 02:39 32.78667 -114.36476 35958 ft 463 kts 272°
2026-05-07 02:40 32.79054 -114.40281 35939 ft 463 kts 286°
2026-05-07 02:40 32.80069 -114.43907 35982 ft 462 kts 289°
2026-05-07 02:40 32.82174 -114.51128 35962 ft 462 kts 289°
2026-05-07 02:41 32.84199 -114.58389 35959 ft 463 kts 288°
2026-05-07 02:41 32.86186 -114.65665 35964 ft 463 kts 289°
2026-05-07 02:42 32.87996 -114.73042 35323 ft 472 kts 276°
2026-05-07 02:42 32.87984 -114.76924 34823 ft 468 kts 268°
2026-05-07 02:42 32.87844 -114.80803 34072 ft 471 kts 268°
2026-05-07 02:43 32.87715 -114.84691 33394 ft 472 kts 269°
2026-05-07 02:43 32.87602 -114.88605 32676 ft 474 kts 269°
2026-05-07 02:43 32.87503 -114.92527 31931 ft 475 kts 270°
2026-05-07 02:43 32.87411 -114.96451 31414 ft 472 kts 270°
2026-05-07 02:44 32.87352 -114.99027 31044 ft 471 kts 270°
2026-05-07 02:44 32.87262 -115.02907 30529 ft 467 kts 271°
2026-05-07 02:44 32.87172 -115.06758 30016 ft 464 kts 271°
2026-05-07 02:44 32.87081 -115.10584 29502 ft 461 kts 271°
2026-05-07 02:45 32.86989 -115.14386 28982 ft 458 kts 271°
2026-05-07 02:45 32.86896 -115.18158 28462 ft 455 kts 271°
2026-05-07 02:45 32.86801 -115.21913 27943 ft 452 kts 271°
2026-05-07 02:45 32.86675 -115.26843 27251 ft 449 kts 271°
2026-05-07 02:46 32.86611 -115.29345 26888 ft 447 kts 271°
2026-05-07 02:46 32.86517 -115.33031 26368 ft 444 kts 271°
2026-05-07 02:46 32.86291 -115.36699 25734 ft 447 kts 264°
2026-05-07 02:46 32.85751 -115.40336 25183 ft 446 kts 261°
2026-05-07 02:47 32.85156 -115.43943 24665 ft 443 kts 262°
2026-05-07 02:47 32.84607 -115.47532 24162 ft 439 kts 263°
2026-05-07 02:47 32.84083 -115.51097 23661 ft 436 kts 262°
2026-05-07 02:47 32.83521 -115.54631 23166 ft 433 kts 262°
2026-05-07 02:48 32.82945 -115.58111 22679 ft 430 kts 261°
2026-05-07 02:48 32.82364 -115.61586 22191 ft 427 kts 261°
2026-05-07 02:48 32.81790 -115.65033 21698 ft 423 kts 261°
2026-05-07 02:48 32.81224 -115.68450 21225 ft 420 kts 261°
2026-05-07 02:49 32.80664 -115.71845 20756 ft 417 kts 261°
2026-05-07 02:49 32.80108 -115.75212 20282 ft 414 kts 261°
2026-05-07 02:49 32.79556 -115.78558 19814 ft 410 kts 261°
2026-05-07 02:49 32.79009 -115.81870 19351 ft 407 kts 261°
2026-05-07 02:50 32.78471 -115.85162 18895 ft 404 kts 262°
2026-05-07 02:50 32.78104 -115.88444 18447 ft 399 kts 267°
2026-05-07 02:50 32.77874 -115.91715 18005 ft 395 kts 268°
2026-05-07 02:50 32.77680 -115.94959 17566 ft 392 kts 268°
2026-05-07 02:51 32.77483 -115.98172 17135 ft 389 kts 268°
2026-05-07 02:51 32.77272 -116.01363 16700 ft 385 kts 268°
2026-05-07 02:51 32.77051 -116.04494 16275 ft 382 kts 268°
2026-05-07 02:51 32.76819 -116.07622 15863 ft 379 kts 268°
2026-05-07 02:52 32.76583 -116.10734 15448 ft 376 kts 268°
2026-05-07 02:52 32.76348 -116.13815 15035 ft 374 kts 267°
2026-05-07 02:52 32.76113 -116.16877 14623 ft 371 kts 267°
2026-05-07 02:52 32.75879 -116.19914 14215 ft 368 kts 267°
2026-05-07 02:53 32.75647 -116.22923 13803 ft 364 kts 267°
2026-05-07 02:53 32.75417 -116.25905 13413 ft 361 kts 267°
2026-05-07 02:53 32.75188 -116.28867 13005 ft 359 kts 267°
2026-05-07 02:53 32.74962 -116.31771 12597 ft 347 kts 267°
2026-05-07 02:54 32.74743 -116.34588 12228 ft 340 kts 267°
2026-05-07 02:54 32.74528 -116.37379 11878 ft 338 kts 267°
2026-05-07 02:54 32.74314 -116.40131 11523 ft 335 kts 267°
2026-05-07 02:54 32.74098 -116.42885 11158 ft 333 kts 267°
2026-05-07 02:55 32.73885 -116.45607 10794 ft 331 kts 267°
2026-05-07 02:55 32.73673 -116.48306 10414 ft 323 kts 266°
2026-05-07 02:55 32.73462 -116.50918 10067 ft 313 kts 265°
2026-05-07 02:55 32.73225 -116.53404 10025 ft 293 kts 265°
2026-05-07 02:56 32.72989 -116.55790 9498 ft 293 kts 265°
2026-05-07 02:56 32.72756 -116.58160 9118 ft 287 kts 265°
2026-05-07 02:56 32.72529 -116.60485 8798 ft 279 kts 265°
2026-05-07 02:56 32.72309 -116.62759 8498 ft 278 kts 265°
2026-05-07 02:57 32.72088 -116.65044 8186 ft 279 kts 265°
2026-05-07 02:57 32.71885 -116.67335 7898 ft 279 kts 266°
2026-05-07 02:57 32.71708 -116.69623 7610 ft 278 kts 266°
2026-05-07 02:57 32.71529 -116.71949 7104 ft 285 kts 266°
2026-05-07 02:58 32.71345 -116.74286 6750 ft 281 kts 266°
2026-05-07 02:58 32.71167 -116.76556 6448 ft 272 kts 266°
2026-05-07 02:58 32.70994 -116.78754 6262 ft 261 kts 266°
2026-05-07 02:58 32.70830 -116.80843 6126 ft 248 kts 266°
2026-05-07 02:59 32.70529 -116.82850 5894 ft 251 kts 251°
2026-05-07 02:59 32.69887 -116.84772 5658 ft 249 kts 250°
2026-05-07 02:59 32.69268 -116.86664 5397 ft 243 kts 250°
2026-05-07 02:59 32.68669 -116.88525 5103 ft 239 kts 251°
2026-05-07 03:00 32.68115 -116.90361 4826 ft 234 kts 252°
2026-05-07 03:00 32.67583 -116.92168 4552 ft 230 kts 252°
2026-05-07 03:00 32.67305 -116.93985 4257 ft 222 kts 279°
2026-05-07 03:00 32.67691 -116.95717 4032 ft 214 kts 288°
2026-05-07 03:01 32.68111 -116.97415 3726 ft 213 kts 288°
2026-05-07 03:01 32.68523 -116.99090 3463 ft 210 kts 287°
2026-05-07 03:01 32.68924 -117.00740 3211 ft 206 kts 287°
2026-05-07 03:01 32.69321 -117.02362 2927 ft 202 kts 287°
2026-05-07 03:02 32.69701 -117.03918 2685 ft 191 kts 287°
2026-05-07 03:02 32.70061 -117.05390 2454 ft 180 kts 287°
2026-05-07 03:02 32.70401 -117.06777 2225 ft 169 kts 288°
2026-05-07 03:02 32.70712 -117.08055 2051 ft 154 kts 288°
2026-05-07 03:03 32.71000 -117.09244 1775 ft 147 kts 288°
2026-05-07 03:03 32.71279 -117.10393 1554 ft 144 kts 288°
2026-05-07 03:03 32.71541 -117.11540 1333 ft 144 kts 288°
2026-05-07 03:03 32.71808 -117.12683 1116 ft 144 kts 288°
2026-05-07 03:04 32.72082 -117.13819 920 ft 144 kts 289°
2026-05-07 03:04 32.72369 -117.14961 674 ft 144 kts 289°
2026-05-07 03:04 32.72643 -117.16055 461 ft 138 kts 289°
2026-05-07 03:04 32.72916 -117.17163 239 ft 142 kts 287°
2026-05-07 03:05 32.73199 -117.18315 33 ft 141 kts 288°
2026-05-07 03:05 32.73441 -117.19314 20 ft 110 kts 286°
2026-05-07 03:05 32.73577 -117.19868 26 ft 52 kts 286°
2026-05-07 03:05 32.73637 -117.20126 24 ft 19 kts 284°
2026-05-07 03:06 32.73585 -117.20208 22 ft 12 kts 178°
2026-05-07 03:06 32.73538 -117.20135 25 ft 12 kts 105°
2026-05-07 03:06 32.73515 -117.20041 24 ft 12 kts 106°
2026-05-07 03:06 32.73491 -117.19950 22 ft 11 kts 107°
2026-05-07 03:07 32.73471 -117.19861 23 ft 11 kts 104°
2026-05-07 03:07 32.73450 -117.19775 24 ft 11 kts 105°
2026-05-07 03:07 32.73429 -117.19689 22 ft 11 kts 106°
2026-05-07 03:07 32.73409 -117.19606 22 ft 10 kts 110°
2026-05-07 03:08 32.73355 -117.19594 20 ft 8 kts 197°
2026-05-07 03:08 32.73332 -117.19602 19 ft 1 kts 197°
2026-05-07 03:08 32.73328 -117.19604 19 ft 1 kts 197°
2026-05-07 03:08 32.73327 -117.19604 19 ft 0 kts 197°